GW0761 Weather Reports


Display with metric or nautical units.
time (UTC)temp
F
wind
direction
speed
MPH
gust
MPH
rain 1hr
in
rain 24hr
in
rain mn
in
humidity
%
barometer
mb
20260505014553 60 258 2.0 4.0 0.00 0.00 0.00 73 1013.4
20260505012356 61 329 1.0 5.0 0.00 0.00 0.00 71 1013.7
20260505010854 61 259 2.0 6.0 0.00 0.00 0.00 71 1013.8
20260505010047 63 274 2.0 4.0 0.00 0.00 0.00 69 1013.9
20260505003845 63 213 2.0 7.0 0.00 0.00 0.00 70 1014.0
20260505002344 62 288 1.0 8.0 0.00 0.00 0.00 69 1014.0
20260505000842 62 276 2.0 9.0 0.00 0.00 0.00 70 1013.9
20260504235341 62 259 1.0 5.0 0.00 0.00 0.00 71 1014.1
20260504233837 62 288 2.0 8.0 0.00 0.00 0.00 70 1013.9
20260504232336 63 60 3.0 7.0 0.00 0.00 0.00 71 1014.0
20260504230835 62 55 1.0 7.0 0.00 0.00 0.00 72 1013.9
20260504225335 62 267 2.0 7.0 0.00 0.00 0.00 72 1014.1
20260504223831 62 293 1.0 5.0 0.00 0.00 0.00 73 1014.2
20260504222330 61 257 1.0 6.0 0.00 0.00 0.00 76 1014.4
20260504220827 61 7 2.0 12.0 0.00 0.00 0.00 75 1014.5
20260504215326 61 281 2.0 8.0 0.00 0.00 0.00 75 1014.6
20260504213825 61 92 1.0 7.0 0.00 0.00 0.00 76 1014.6
20260504212323 61 217 3.0 7.0 0.00 0.00 0.00 75 1014.6
20260504210821 61 27 1.0 7.0 0.00 0.00 0.00 76 1014.5
20260504205319 60 237 2.0 5.0 0.00 0.00 0.00 76 1014.5
20260504203817 60 6 2.0 9.0 0.00 0.00 0.00 76 1014.5
20260504202316 60 93 2.0 7.0 0.00 0.00 0.00 78 1014.6
20260504200812 60 259 2.0 7.0 0.00 0.00 0.00 77 1014.5
20260504195311 60 314 0.0 5.0 0.00 0.00 0.00 79 1014.5
20260504193809 60 281 2.0 7.0 0.00 0.00 0.00 78 1014.3
20260504192307 61 2 1.0 5.0 0.00 0.00 0.00 76 1014.2
20260504190806 61 16 1.0 4.0 0.00 0.00 0.00 77 1014.3
20260504185959 60 130 1.0 6.0 0.00 0.00 0.00 77 1014.4
20260504183803 60 232 1.0 7.0 0.00 0.00 0.00 76 1014.5
20260504182300 60 279 1.0 5.0 0.00 0.00 0.00 77 1014.5
20260504180758 60 259 1.0 5.0 0.00 0.00 0.00 78 1014.4
20260504175256 59 161 0.0 4.0 0.00 0.00 0.00 78 1014.3
20260504173754 59 10 0.0 3.0 0.00 0.00 0.00 78 1014.4
20260504172252 59 101 0.0 4.0 0.00 0.00 0.00 78 1014.3
20260504171439 58 15 0.0 4.0 0.00 0.00 0.00 80 1014.3
20260504150738 55 276 0.0 0.0 0.00 0.00 0.00 87 1014.0
20260504130644 52 276 0.0 0.0 0.00 0.00 0.00 94 1012.9
20260504110606 52 276 0.0 0.0 0.00 0.00 0.00 94 1012.8
20260504082003 49 276 0.0 0.0 0.00 0.00 0.00 95 1012.8
20260504080502 48 276 0.0 0.0 0.00 0.00 0.00 95 1012.8
20260504080344 48 276 0.0 0.0 0.00 0.00 0.00 95 1012.8
20260504044900 52 276 0.0 0.0 0.00 0.00 0.00 89 1012.0
20260504043359 53 276 0.0 0.0 0.00 0.00 0.00 88 1011.8
20260504041851 54 276 0.0 0.0 0.00 0.00 0.00 87 1011.6
20260504040352 55 276 1.0 2.0 0.00 0.00 0.00 86 1011.4
20260504034851 55 314 0.0 1.0 0.00 0.00 0.00 85 1011.0
20260504033349 56 272 0.0 2.0 0.00 0.00 0.00 83 1010.6
20260504030341 57 25 1.0 7.0 0.00 0.00 0.00 80 1010.3
20260504024839 59 163 1.0 6.0 0.00 0.00 0.00 77 1009.7
20260504024039 60 269 0.0 6.0 0.00 0.00 0.00 75 1009.5
20260504021836 61 161 1.0 7.0 0.00 0.00 0.00 73 1009.3
20260504021035 63 162 1.0 5.0 0.00 0.00 0.00 70 1009.2
20260504014834 66 293 2.0 5.0 0.00 0.00 0.00 66 1009.0